Home > Weather > Amiens > Past weeks

Flag for France Past Weather in Amiens, Picardy, France — Yesterday and Last 2 Weeks

Now
54 °F

Clear.


Feels Like: 51 °F
Forecast: 58 / 68 °F
Wind: 9 mph from West

Location: Beauvais Airport

Current Time: Jun 29, 2016 at 5:55:56 AM

Latest Report: Jun 29, 2016 at 5:00 AM


Visibility: 10 mi

Pressure: 29.95 "Hg

Humidity: 88%

Dew Point: 50 °F

Location of AmiensLocation

Past Weather in Amiens — Graph

°F

Amiens Temperature Yesterday

Maximum temperature yesterday: 72 °F (at 4:00 PM)
Minimum temperature yesterday: 54 °F (at 3:00 AM)
Average temperature yesterday: 62 °F

High & Low Weather Summary for the Past Weeks

 TemperatureHumidityPressure
High84 °F (Jun 23, 1:30 PM)100% (Jun 16, 7:30 AM)30.30 "Hg (Jun 16, 7:30 AM)
Low50 °F (Jun 18, 2:00 AM)49% (Jun 25, 1:30 PM)29.47 "Hg (Jun 15, 2:00 AM)
Average62 °F82%29.97 "Hg
* Reported Jun 14 4:00 AM — Jun 29 4:30 AM, Amiens, Weather by CustomWeather, © 2016

Note: Actual official high and low records may vary slightly from our data, if they occured in-between our weather recording intervals... More about our weather records

Advertising

Amiens Weather History for the Previous 24 Hours

Scroll right to see more
 ConditionsComfort  
Time TempWeatherWind HumidityBarometerVisibility
4:30 AM
Wed, Jun 29
55 °FPassing clouds.12 mph82%29.95 "HgN/A
4:00 AM55 °FClear.14 mph82%29.95 "Hg10 mi
3:30 AM55 °FClear.14 mph88%29.95 "Hg10 mi
3:00 AM57 °FClear.15 mph82%29.95 "Hg10 mi
2:30 AM59 °FPassing clouds.12 mph82%29.95 "HgN/A
2:00 AM59 °FPassing clouds.12 mph82%29.95 "HgN/A
1:30 AM59 °FPassing clouds.14 mph88%29.95 "HgN/A
1:00 AM61 °FPassing clouds.12 mph83%29.95 "HgN/A
12:30 AM63 °FPartly cloudy.14 mph77%29.92 "HgN/A
12:00 AM63 °FMostly cloudy.10 mph77%29.92 "HgN/A
11:30 PM
Tue, Jun 28
64 °FPassing clouds.13 mph68%29.92 "HgN/A
11:00 PM66 °FMore clouds than sun.12 mph64%29.89 "HgN/A
10:30 PM66 °FSunny.8 mph68%29.89 "Hg10 mi
10:00 PM66 °FSunny.8 mph68%29.89 "Hg10 mi
9:30 PM68 °FSunny.8 mph64%29.89 "Hg10 mi
9:00 PM68 °FSunny.8 mph64%29.89 "Hg10 mi
8:30 PM68 °FPartly sunny.8 mph64%29.89 "HgN/A
8:00 PM68 °FPartly sunny.10 mph64%29.89 "HgN/A
7:30 PM70 °FBroken clouds.12 mph60%29.92 "HgN/A
7:00 PM70 °FBroken clouds.12 mph60%29.92 "HgN/A
6:30 PM70 °FMostly cloudy.12 mph64%29.92 "HgN/A
6:00 PM70 °FOvercast.13 mph60%29.95 "HgN/A
5:30 PM70 °FMore clouds than sun.12 mph64%29.95 "HgN/A
5:00 PM70 °FBroken clouds.13 mph60%29.95 "HgN/A
4:30 PM72 °FBroken clouds.12 mph57%29.98 "HgN/A
4:00 PM72 °FBroken clouds.10 mph53%29.98 "HgN/A
3:30 PM70 °FBroken clouds.12 mph57%29.98 "HgN/A
3:00 PM70 °FBroken clouds.10 mph57%30.01 "HgN/A
2:30 PM70 °FPartly sunny.10 mph57%30.01 "HgN/A
2:00 PM68 °FBroken clouds.10 mph60%30.04 "HgN/A
1:30 PM68 °FPartly sunny.9 mph56%30.04 "HgN/A
1:00 PM68 °FBroken clouds.9 mph56%30.04 "HgN/A
12:30 PM66 °FBroken clouds.8 mph60%30.07 "HgN/A
12:00 PM64 °FPartly sunny.9 mph64%30.07 "HgN/A
11:30 AM63 °FPassing clouds.9 mph73%30.07 "HgN/A
11:00 AM63 °FPassing clouds.9 mph68%30.07 "HgN/A
10:30 AM61 °FSunny.8 mph72%30.07 "Hg10 mi
10:00 AM61 °FPassing clouds.8 mph77%30.09 "HgN/A
9:30 AM61 °FSunny.8 mph77%30.09 "Hg10 mi
9:00 AM59 °FPassing clouds.8 mph88%30.09 "HgN/A
8:30 AM57 °FPassing clouds.7 mph88%30.09 "HgN/A
8:00 AM57 °FSunny.6 mph88%30.09 "Hg10 mi
7:30 AM55 °FSunny.6 mph94%30.09 "Hg10 mi
7:00 AM55 °FMostly cloudy.5 mph94%30.09 "HgN/A
6:30 AM55 °FPartly cloudy.5 mph88%30.09 "HgN/A
6:00 AM55 °FClear.6 mph88%30.09 "Hg10 mi
5:30 AM54 °FPassing clouds.3 mph94%30.09 "HgN/A
5:00 AM54 °FClear.5 mph94%30.09 "Hg10 mi
Weather by CustomWeather, © 2016

See weather overviewHow to use our weather pages